Regional Weather Roundup
Issued by NWS

Home | Current Version | Previous Version | Graphics & Text | Print | Product List | Glossary On
Versions: 1 2 3 4 5 6 7 8 9 10 11 12 13 14 15 16 17 18 19 20 21 22 23 24 25 26 27 28 29 30 31 32 33 34 35 36 37 38 39 40 41 42 43 44 45 46 47 48 49 50
000
ASUS43 KIND 262209
RWRIN

WEATHER ROUNDUP FOR INDIANA
NATIONAL WEATHER SERVICE INDIANAPOLIS IN
600 PM EDT TUE MAY 26 2015

NOTE: "FAIR" INDICATES FEW OR NO CLOUDS BELOW 12,000 FEET WITH NO
SIGNIFICANT WEATHER AND/OR OBSTRUCTIONS TO VISIBILITY.

* - STATION DOES NOT REPORT WEATHER SUCH AS PRECIPITATION OR FOG.

+ - STATION NOT QUALITY CONTROLLED BY THE NATIONAL WEATHER SERVICE.
    USE DATA WITH CAUTION...ESPECIALLY DEWPOINT AND RELATIVE
    HUMIDITY OBSERVATIONS.

INZ001>003-010>013-019-020-262300-
NORTHWEST INDIANA

CITY           SKY/WX    TMP DP  RH WIND       PRES   REMARKS
GARY /AIRPORT/ PTSUNNY   77  64  65 S12G23    29.80F
KNOX *+        PTSUNNY   75  63  64 SW20G29   29.83F
LA PORTE +     PTSUNNY   77  65  65 S13G24    29.83S
MICHIGAN CITY+ MOSUNNY   73  61  64 S14G23    29.82S
MONTICELLO +   MOSUNNY   77  68  74 S14       29.85F
RENSSELAER +   RAIN      72  64  78 SW14G28   29.85R
VALPARAISO     MOSUNNY   76  63  64 SW20G31   29.83S

$$

LMZ046-743>745-262300-
SOUTHERN LAKE MICHIGAN

STATION/POSITION TIME  TEMP    WIND        PRES    WAVE
                       AIR SEA DIR/SP/G            HT
                 (UTC) (F)     (DEG/KT/KT) (MB)    (FT)
BURNS HARBOR     2200   73     200/ 15/ 22 1009.5S
MICHIGAN CITY    2200   73     180/ 16/ 19   N/A
5NW MICH CITY    2200   65 52  210/ 12/ 17   N/A     2

$$

INZ004-005-014>016-021>024-262300-
NORTH CENTRAL INDIANA

CITY           SKY/WX    TMP DP  RH WIND       PRES   REMARKS
ELKHART        CLOUDY    68  59  73 SW13G18   29.86F
GOSHEN         LGT RAIN  69  59  70 SW14G25   29.86S
LOGANSPORT +   PTSUNNY   75  63  64 SW14G20   29.88R
ROCHESTER +    RAIN      77  64  65 SW13G28   29.87F
SOUTH BEND     CLOUDY    72  61  68 S13       29.84F
WARSAW +       LGT RAIN  72  64  78 SW8       29.87S

$$

INZ006>009-017-018-025>027-262300-
NORTHEAST INDIANA

CITY           SKY/WX    TMP DP  RH WIND       PRES   REMARKS
ANGOLA *+      PTSUNNY   73  68  83 S12       29.88F
AUBURN +       LGT RAIN  72  66  83 S8        29.90F
FORT WAYNE     CLOUDY    72  68  87 S20G25    29.90F
HUNTINGTON +   CLOUDY    72  67  84 S12G18    29.90S

$$

INZ028-029-035-036-043>045-051>053-262300-
WEST CENTRAL INDIANA

CITY           SKY/WX    TMP DP  RH WIND       PRES   REMARKS
CRAWFORDSVL +  PTSUNNY   77  51  40 SW21      29.90R
GREENCASTLE +  PTSUNNY   77  55  47 S6        29.92R
LAFAYETTE      MOSUNNY   77  60  55 SW14G24   29.86S
TERRE HAUTE    PTSUNNY   77  58  51 SW18G26   29.92R

$$

INZ030>032-037>040-046>048-054>057-064-065-262300-
CENTRAL INDIANA

CITY           SKY/WX    TMP DP  RH WIND       PRES   REMARKS
CP ATTERBURY + PTSUNNY   75  66  73 S14G22    29.96S
COLUMBUS       PTSUNNY   73  66  78 S15G21    29.97S
FRANKFORT +    MOSUNNY   80  59  47 S22G36    29.90S
GREENWOOD *+   PTSUNNY   79  66  65 S14G21    29.95S
INDIANAPOLIS   PTSUNNY   78  64  61 SW17G28   29.91R
-EAGLE CREEK   PTSUNNY   78  65  63 SW12G22   29.91S
KOKOMO *+      PTSUNNY   77  66  69 S15G24    29.89R
MARION +       CLOUDY    72  66  80 S17       29.92S
MT COMFORT *+  PTSUNNY   75  64  69 S15G21    29.94S
SHELBYVILLE    PTSUNNY   76  67  73 S16       29.95S
ZIONSVILLE +   MOSUNNY   79  65  62 SW14      29.92S

$$

INZ033-034-041-042-049-050-058-059-262300-
EAST CENTRAL INDIANA

CITY           SKY/WX    TMP DP  RH WIND       PRES   REMARKS
MUNCIE         CLOUDY    74  65  73 S17       29.93F

$$

INZ060-061-067>069-081>083-085>088-262300-
SOUTHWEST INDIANA

CITY           SKY/WX    TMP DP  RH WIND       PRES   REMARKS
EVANSVILLE     PTSUNNY   79  62  56 SW17      29.98R
HUNTINGBURG *+ CLOUDY    77  64  65 SW10      29.97F
WASHINGTON +   CLOUDY    79  56  44 W18G25    29.95R

$$

INZ062-063-066-070>080-084-089>092-262300-
SOUTH CENTRAL AND SOUTHEAST INDIANA

CITY           SKY/WX    TMP DP  RH WIND       PRES   REMARKS
BLOOMINGTON    PTSUNNY   77  61  57 SW18G26   29.95R
MADISON *+     CLOUDY    75  68  78 S13G20    30.02S
NORTH VERNON + CLOUDY    73  73 100 SW12G17   29.99F
SEYMOUR +      PTSUNNY   77  66  69 S16       29.98S

$$




USA.gov is the U.S. government's official web portal to all federal, state and local government web resources and services.